[[{"header":{"parameterUnit":"m.s-1","parameterCategory":1,"la1":30.2991,"la2":30.254,"lo1":-89.0895,"lo2":-89.0444,"dy":0.0017,"dx":0.0017,"nx":28,"ny":28,"refTime":"2025-08-08T21:00:00:Z","depth":0,"parameterNumber":2,"parameterNumberName":"U-component_of_WINDS"},"data":[0,0,0,0,0,0,0,0,0,0,0,0,0,0,0,0,0,0,0,0,0,0,0,0,0,0,0,0,0,0,0,0,0,0,0,0,0,0,0,0,0,0,0,0,0,0,0,0,0,0,0,0,0,0,0,0,0,0,-2.1479,-2.148,0,-2.1547,-2.1548,-2.1548,-2.1498,-2.1496,-2.1493,-2.1491,-2.1566,-2.157,-2.1574,0,0,0,0,0,0,0,0,0,0,0,0,0,-2.1313,-2.1317,-2.1479,-2.148,-2.1481,-2.1547,-2.1548,-2.1549,-2.1498,-2.1495,-2.1493,-2.149,-2.1565,-2.1569,-2.1574,0,0,0,0,0,0,0,0,0,0,0,0,0,-2.1384,-2.1318,-2.1479,-2.1464,-2.1463,-2.1547,-2.1548,-2.1549,-2.1499,-2.1495,-2.1492,-2.1489,-2.1563,-2.1569,-2.1575,-2.1679,0,0,-2.1593,-2.1596,0,0,0,0,0,0,0,0,-2.138,-2.139,-2.1465,-2.1465,-2.1464,-2.151,-2.1516,-2.1593,-2.15,-2.1485,-2.1491,-2.1487,-2.155,-2.1557,-2.1578,-2.1683,-2.1686,-2.1594,-2.1598,-2.16,-2.1602,0,0,0,0,0,0,0,-2.1375,-2.1387,-2.1506,-2.1466,-2.1466,-2.1456,-2.1462,-2.1531,-2.1536,-2.1486,-2.1483,-2.1491,-2.155,-2.1572,-2.1579,-2.1687,-2.1594,-2.1599,-2.1603,-2.1605,-2.1884,-2.1888,0,0,0,0,0,0,-2.1371,-2.1383,-2.1504,-2.1508,-2.1413,-2.1461,-2.1468,-2.1499,-2.1535,-2.1537,-2.1494,-2.1489,-2.1563,-2.1572,-2.1581,-2.1707,-2.16,-2.1606,-2.1609,-2.188,-2.1885,-2.1889,0,0,0,0,0,0,-2.1367,-2.1382,-2.1501,-2.1445,-2.1459,-2.1468,-2.1503,-2.1502,-2.1524,-2.1541,-2.1542,-2.1515,-2.1561,-2.1573,-2.1655,-2.1709,-2.1609,-2.1614,-2.1876,-2.1882,-2.1887,-2.1959,0,0,0,0,0,0,-2.1363,-2.1381,-2.1419,-2.1446,-2.1462,-2.1572,-2.1506,-2.1506,-2.1534,-2.1528,-2.1561,-2.1563,-2.1559,-2.1647,-2.1662,-2.1716,-2.1619,-2.1871,-2.1879,-2.1885,-2.1952,-2.1966,-2.1979,0,0,0,0,0,-2.1357,-2.1437,-2.1421,-2.1436,-2.151,-2.1575,-2.1585,-2.1577,-2.1538,-2.1578,-2.1589,-2.1562,-2.1701,-2.1655,-2.1672,-2.1729,-2.1868,-2.1877,-2.1885,-2.1946,-2.1963,-2.1978,0,0,0,0,0,0,-2.1418,-2.144,-2.1423,-2.1513,-2.1543,-2.1567,-2.1616,-2.1596,-2.1638,-2.163,-2.162,-2.1628,-2.1715,-2.173,-2.1679,-2.1833,-2.1779,-2.1791,-2.1819,-2.1836,-2.185,-2.1844,-2.1624,0,0,0,0,0,-2.1441,-2.1491,-2.1509,-2.1588,-2.1603,-2.1607,-2.1636,-2.1627,-2.1658,-2.167,-2.1687,-2.172,-2.1771,-2.1804,-2.1852,-2.1954,-2.1962,-2.2002,-2.2015,-2.2026,-2.2037,-2.2094,-2.2112,-2.1917,-2.1917,-2.1917,0,0,-2.1491,-2.151,-2.1542,-2.16,-2.1622,-2.1676,-2.1618,-2.1677,-2.1717,-2.168,-2.1758,-2.1773,-2.1808,-2.1902,-2.1944,-2.1917,-2.2093,-2.2037,-2.2045,-2.205,-2.2104,-2.2123,-2.2139,-2.1923,-2.1921,-2.1921,0,0,-2.1609,-2.1628,-2.1696,-2.1719,-2.1752,-2.1755,-2.1771,-2.1799,-2.1806,-2.1885,-2.1858,-2.1908,-2.1995,-2.2023,-2.2048,-2.218,-2.2157,-2.2196,-2.2266,-2.2322,-2.2337,-2.2351,-2.2399,-2.2417,-2.2206,-2.2207,-2.2207,0,-2.1667,-2.1745,-2.1734,-2.1795,-2.1823,-2.179,-2.186,-2.1884,-2.1932,-2.1953,-2.1922,-2.2033,-2.2055,-2.2155,-2.2187,-2.2208,-2.2229,-2.2191,-2.2336,-2.2349,-2.2362,-2.2408,-2.2426,-2.2211,-2.2211,-2.221,-2.221,0,-2.1816,-2.1871,-2.1922,-2.1968,-2.2001,-2.2067,-2.2068,-2.2104,-2.2093,-2.21,-2.2183,-2.2208,-2.2261,-2.2284,-2.2275,-2.2384,-2.2367,-2.2336,-2.2282,-2.2385,-2.2428,-2.2446,-2.2218,-2.2216,-2.2215,-2.2213,0,0,-2.1972,-2.2012,-2.2031,-2.2052,-2.2088,-2.2131,-2.2197,-2.2248,-2.228,-2.2315,-2.2371,-2.2447,-2.242,-2.2449,-2.2442,-2.2491,-2.2596,-2.2455,-2.2456,-2.2481,-2.2721,-2.2743,-2.2764,-2.2582,-2.2585,-2.2588,-2.2718,0,-2.2093,-2.2204,-2.2197,-2.2304,-2.2356,-2.2327,-2.2385,-2.2414,-2.2423,-2.2471,-2.2481,-2.2536,-2.2494,-2.2512,-2.2559,-2.2573,-2.2644,-2.2564,-2.2636,-2.2639,-2.2628,-2.2786,-2.281,-2.2931,-2.2735,-2.2737,-2.2739,0,-2.2247,-2.2287,-2.2398,-2.2427,-2.2449,-2.25,-2.2548,-2.2592,-2.2627,-2.263,-2.2664,-2.265,-2.2719,-2.2664,-2.276,-2.2706,-2.2736,-2.2747,-2.2752,-2.2758,-2.2695,-2.2797,-2.2969,-2.2988,-2.2766,-2.2764,-2.2762,0,-2.2352,-2.2433,-2.251,-2.2529,-2.2565,-2.2603,-2.262,-2.265,-2.2682,-2.2725,-2.2745,-2.2796,-2.2824,-2.2865,-2.2866,-2.2825,-2.2965,-2.2909,-2.2972,-2.2972,-2.3002,-2.3,-2.3182,-2.3021,-2.3021,-2.302,-2.302,0,-2.2487,-2.2556,-2.2557,-2.2605,-2.2683,-2.2676,-2.2754,-2.2768,-2.2796,-2.2848,-2.2827,-2.2877,-2.2875,-2.2927,-2.2929,-2.301,-2.3023,-2.3029,-2.3029,-2.3031,-2.303,-2.305,-2.3042,-2.3025,-2.3024,-2.3023,-2.3022,0,-2.2616,-2.2619,-2.2702,-2.2729,-2.2738,-2.2795,-2.282,-2.2866,-2.2874,-2.294,-2.2955,-2.2969,-2.3028,-2.3034,-2.3104,-2.3105,-2.3203,-2.3194,-2.3191,-2.319,-2.3253,-2.3247,-2.3454,-2.3481,-2.3302,-2.3304,-2.3305,0,-2.2702,-2.2754,-2.2788,-2.282,-2.2839,-2.2892,-2.2924,-2.292,-2.2955,-2.2999,-2.3042,-2.3099,-2.3144,-2.3242,-2.3259,-2.3313,-2.3305,-2.3374,-2.3313,-2.3314,-2.3307,-2.3304,-2.331,-2.3386,-2.3388,-2.3389,-2.3391,0,-2.2855,-2.2854,-2.29,-2.2948,-2.2986,-2.3024,-2.3059,-2.3088,-2.3089,-2.313,-2.319,-2.3225,-2.3296,-2.3354,-2.3408,-2.3428,-2.3411,-2.341,-2.3427,-2.343,-2.3427,-2.343,-2.3224,-2.3405,-2.3403,-2.3402,-2.3402,-2.3401,-2.2965,-2.3011,-2.3042,-2.3095,-2.3121,-2.3155,-2.3201,-2.3214,-2.3264,-2.332,-2.3316,-2.3383,-2.3419,-2.3488,-2.3513,-2.3567,-2.3544,-2.357,-2.3576,-2.3583,-2.3589,-2.3418,-2.3577,-2.3577,-2.3576,-2.3576,-2.3576,0,-2.3118,-2.3136,-2.3185,-2.3235,-2.3277,-2.3255,-2.3294,-2.3332,-2.339,-2.3424,-2.347,-2.354,-2.3597,-2.3619,-2.3676,-2.3715,-2.3709,-2.373,-2.3727,-2.3733,-2.3606,-2.3585,-2.3734,-2.3734,-2.3734,-2.3734,-2.3734,-2.3734,-2.3202,-2.3279,-2.3283,-2.3374,-2.3393,-2.3457,-2.3481,-2.3514,-2.3541,-2.362,-2.3666,-2.368,-2.371,-2.3769,-2.3821,-2.3827,-2.3849,-2.3874,-2.3876,-2.3757,-2.3741,-2.3726,-2.3707,-2.3879,-2.3879,-2.3999,-2.4,-2.4001]},{"header":{"parameterUnit":"m.s-1","parameterCategory":1,"la1":30.2991,"la2":30.254,"lo1":-89.0895,"lo2":-89.0444,"dy":0.0017,"dx":0.0017,"nx":28,"ny":28,"refTime":"2025-08-08T21:00:00:Z","depth":0,"parameterNumber":3,"parameterNumberName":"V-component_of_WINDS"},"data":[0,0,0,0,0,0,0,0,0,0,0,0,0,0,0,0,0,0,0,0,0,0,0,0,0,0,0,0,0,0,0,0,0,0,0,0,0,0,0,0,0,0,0,0,0,0,0,0,0,0,0,0,0,0,0,0,0,0,3.1652,3.1652,0,3.1691,3.1692,3.1692,3.1711,3.1711,3.1711,3.1711,3.1748,3.1748,3.1749,0,0,0,0,0,0,0,0,0,0,0,0,0,3.159,3.1591,3.1652,3.1652,3.1653,3.1691,3.1692,3.1692,3.1711,3.1711,3.1711,3.1711,3.1747,3.1748,3.175,0,0,0,0,0,0,0,0,0,0,0,0,0,3.1622,3.1591,3.1652,3.1667,3.1669,3.1691,3.1692,3.1692,3.1711,3.1711,3.1711,3.1711,3.1747,3.1748,3.175,3.1759,0,0,3.1754,3.1755,0,0,0,0,0,0,0,0,3.162,3.1624,3.1664,3.1666,3.1668,3.1696,3.1683,3.1714,3.1711,3.1695,3.1711,3.1711,3.173,3.1733,3.174,3.1761,3.1762,3.1754,3.1755,3.1756,3.1756,0,0,0,0,0,0,0,3.1618,3.1622,3.1667,3.1665,3.1667,3.1671,3.1675,3.1689,3.1712,3.1696,3.1698,3.1702,3.1731,3.1739,3.1741,3.1763,3.1754,3.1756,3.1756,3.1757,3.1792,3.1792,0,0,0,0,0,0,3.1613,3.162,3.1666,3.1668,3.1644,3.1672,3.1677,3.1687,3.1712,3.1716,3.1702,3.1703,3.1736,3.174,3.1743,3.1755,3.1756,3.1757,3.1758,3.1792,3.1792,3.1793,0,0,0,0,0,0,3.1612,3.1617,3.1664,3.1645,3.1651,3.1673,3.1684,3.1688,3.1696,3.1716,3.172,3.1706,3.1736,3.1741,3.1755,3.1757,3.1758,3.1759,3.1792,3.1792,3.1792,3.178,0,0,0,0,0,0,3.161,3.1617,3.1621,3.1645,3.1652,3.1677,3.1684,3.1689,3.1698,3.17,3.1721,3.1725,3.1737,3.1753,3.1756,3.1759,3.176,3.1792,3.1792,3.1792,3.1781,3.178,3.1779,0,0,0,0,0,3.1608,3.1615,3.1621,3.1627,3.1658,3.1677,3.1681,3.1696,3.1699,3.1703,3.1716,3.1724,3.1756,3.1754,3.1758,3.1761,3.1792,3.1792,3.1792,3.1781,3.178,3.1779,0,0,0,0,0,0,3.159,3.1619,3.1626,3.1641,3.1657,3.168,3.1686,3.1695,3.1709,3.1709,3.1726,3.1731,3.1744,3.1754,3.1751,3.1771,3.1775,3.1776,3.1764,3.1764,3.1763,3.176,3.1762,0,0,0,0,0,3.1588,3.1602,3.1626,3.1637,3.1645,3.1664,3.1673,3.1683,3.1699,3.1706,3.172,3.1735,3.1748,3.1756,3.177,3.1782,3.1787,3.1786,3.1786,3.1785,3.1786,3.1793,3.1793,3.1793,3.1793,3.1793,0,0,3.1584,3.1601,3.1609,3.1634,3.1647,3.166,3.1669,3.1683,3.1692,3.1707,3.1722,3.1733,3.175,3.1764,3.1771,3.1773,3.1787,3.1785,3.1784,3.1785,3.1793,3.1793,3.1793,3.1793,3.1793,3.1793,0,0,3.1583,3.1597,3.1609,3.1622,3.1643,3.1655,3.1658,3.1681,3.1689,3.1704,3.1716,3.1727,3.175,3.1762,3.1771,3.1775,3.1782,3.1778,3.1775,3.1782,3.1782,3.1782,3.1784,3.1784,3.1779,3.1779,3.1779,0,3.1574,3.1596,3.1613,3.1626,3.1637,3.1652,3.1663,3.1675,3.1698,3.1705,3.1707,3.1736,3.1749,3.1766,3.1767,3.1773,3.1776,3.1776,3.1781,3.1781,3.1781,3.1783,3.1783,3.1778,3.1778,3.1779,3.1779,0,3.1585,3.1599,3.1606,3.1629,3.1641,3.1653,3.1671,3.168,3.1689,3.1701,3.1717,3.1733,3.175,3.1754,3.1763,3.1772,3.1773,3.1778,3.1782,3.1781,3.1782,3.1783,3.1778,3.1778,3.1778,3.1778,0,0,3.1573,3.1607,3.1609,3.162,3.1644,3.1655,3.1667,3.1685,3.1693,3.1708,3.1718,3.1738,3.1743,3.1753,3.1763,3.1769,3.1771,3.1773,3.1774,3.1772,3.1782,3.1778,3.1779,3.1776,3.1777,3.1777,3.1781,0,3.1576,3.16,3.1616,3.1634,3.1647,3.1662,3.1673,3.1688,3.17,3.1712,3.1724,3.1738,3.1743,3.175,3.1756,3.177,3.1773,3.1769,3.1786,3.1786,3.1781,3.178,3.1776,3.1779,3.1782,3.1782,3.1782,0,3.1582,3.1598,3.1618,3.164,3.1647,3.1656,3.1674,3.1686,3.1703,3.1711,3.1723,3.1734,3.1747,3.1749,3.1767,3.1764,3.1771,3.1779,3.1779,3.1781,3.1784,3.1782,3.178,3.1781,3.1783,3.1783,3.1783,0,3.1572,3.1598,3.1614,3.1623,3.1649,3.1656,3.1667,3.1685,3.1694,3.171,3.1716,3.1732,3.1741,3.1752,3.1767,3.1767,3.1783,3.1787,3.1789,3.1789,3.1792,3.1791,3.1791,3.1797,3.1797,3.1797,3.1797,0,3.1573,3.1584,3.161,3.1619,3.1632,3.165,3.1661,3.1674,3.1689,3.17,3.1714,3.1724,3.1742,3.1754,3.1765,3.1778,3.1782,3.1788,3.1791,3.1787,3.1786,3.1792,3.1792,3.1797,3.1797,3.1797,3.1797,0,3.1563,3.1581,3.1599,3.1623,3.163,3.1638,3.1658,3.1668,3.168,3.1694,3.1699,3.1718,3.1733,3.1749,3.1768,3.1776,3.1788,3.1792,3.1783,3.1784,3.1786,3.1786,3.179,3.1792,3.1795,3.1795,3.1795,0,3.1563,3.1572,3.1598,3.1607,3.1619,3.1633,3.1644,3.1661,3.1671,3.1692,3.1698,3.1715,3.1729,3.1752,3.1767,3.1782,3.1786,3.1787,3.1789,3.1785,3.1787,3.1786,3.1787,3.1786,3.1786,3.1786,3.1786,0,3.156,3.1569,3.1584,3.1603,3.1615,3.163,3.1646,3.1652,3.1673,3.1683,3.1699,3.171,3.1731,3.1747,3.1764,3.1775,3.1783,3.1785,3.1787,3.1783,3.1777,3.178,3.1781,3.1785,3.1785,3.1785,3.1785,3.1785,3.1556,3.1565,3.1585,3.1601,3.1615,3.1629,3.1639,3.1654,3.1668,3.1687,3.1696,3.1712,3.1729,3.1754,3.1764,3.1776,3.1779,3.1781,3.1781,3.1781,3.1781,3.1775,3.1779,3.1779,3.1779,3.1779,3.1779,0,3.1554,3.1568,3.1583,3.1605,3.1618,3.1626,3.1644,3.1654,3.1668,3.1684,3.1698,3.1716,3.1731,3.1748,3.1764,3.1771,3.1775,3.1775,3.1774,3.1777,3.1777,3.1775,3.1771,3.1771,3.1771,3.1771,3.1771,3.1771,3.1554,3.157,3.1581,3.1604,3.1617,3.1634,3.1643,3.1656,3.1669,3.1689,3.1703,3.1714,3.173,3.1748,3.1762,3.1767,3.1772,3.177,3.1775,3.1776,3.1776,3.1777,3.1775,3.1771,3.1771,3.1774,3.1774,3.1774]}]]